TimeMDT,TemperatureF,Dew PointF,Humidity,Sea Level PressureIn,VisibilityMPH,Wind Direction,Wind SpeedMPH,Gust SpeedMPH,PrecipitationIn,Events,Conditions,WindDirDegrees,DateUTC
12:58 AM,70.7,51.6,51,29.79,10.0,East,11.5,18.4,N/A,,Clear,90,2013-07-12 06:58:00
1:58 AM,69.3,51.3,53,29.79,10.0,ESE,16.1,24.2,N/A,,Clear,110,2013-07-12 07:58:00
2:58 AM,68.0,51.1,55,29.79,10.0,ESE,15.0,-,N/A,,Clear,120,2013-07-12 08:58:00
3:58 AM,66.7,52.2,59,29.79,10.0,ESE,16.1,-,N/A,,Clear,110,2013-07-12 09:58:00
4:58 AM,64.6,52.3,64,29.82,10.0,ESE,15.0,-,N/A,,Clear,120,2013-07-12 10:58:00
5:58 AM,62.2,51.4,68,29.83,10.0,ESE,13.8,-,N/A,,Clear,110,2013-07-12 11:58:00
6:58 AM,64.2,50.7,61,29.84,10.0,ESE,15.0,-,N/A,,Clear,110,2013-07-12 12:58:00
7:58 AM,68.4,51.4,55,29.85,8.0,ESE,18.4,-,N/A,,Clear,120,2013-07-12 13:58:00
8:58 AM,72.7,51.1,47,29.84,7.0,ESE,17.3,-,N/A,,Clear,120,2013-07-12 14:58:00
9:58 AM,76.5,50.2,40,29.84,10.0,East,11.5,-,N/A,,Clear,100,2013-07-12 15:58:00
10:58 AM,80.2,47.5,32,29.84,10.0,East,5.8,-,N/A,,Clear,90,2013-07-12 16:58:00
11:58 AM,83.5,44.4,25,29.83,10.0,North,4.6,-,N/A,,Clear,10,2013-07-12 17:58:00
12:58 PM,87.3,42.1,20,29.81,10.0,WSW,6.9,-,N/A,,Clear,250,2013-07-12 18:58:00
1:58 PM,90.5,35.8,14,29.78,10.0,SW,6.9,-,N/A,,Clear,220,2013-07-12 19:58:00
2:58 PM,92.7,31.5,11,29.75,10.0,West,9.2,17.3,N/A,,Clear,280,2013-07-12 20:58:00
3:58 PM,94.6,24.6,8,29.73,10.0,SW,9.2,-,N/A,,Clear,230,2013-07-12 21:58:00
4:58 PM,95.5,22.6,7,29.71,10.0,SW,9.2,-,N/A,,Clear,220,2013-07-12 22:58:00
5:58 PM,96.4,13.1,5,29.69,10.0,SW,10.4,-,N/A,,Clear,230,2013-07-12 23:58:00
6:58 PM,96.8,10.8,4,29.68,10.0,WSW,8.1,-,N/A,,Clear,250,2013-07-13 00:58:00
7:58 PM,95.0,12.4,5,29.68,10.0,West,11.5,-,N/A,,Clear,260,2013-07-13 01:58:00
9:55 PM,82.4,12.2,7,29.78,10.0,SW,8.1,-,N/A,,Clear,230,2013-07-13 03:55:00
10:55 PM,78.8,15.8,9,29.79,10.0,SW,9.2,-,N/A,,Clear,220,2013-07-13 04:55:00
11:55 PM,75.2,24.8,15,29.82,10.0,WNW,13.8,-,N/A,,Clear,300,2013-07-13 05:55:00